www.pogodaiklimat.ru

Погода и климат >> Архив погоды >> Канада >> Baker Lake Climate


ПОГОДА в Baker Lake Climate

  • Прогноз погоды в Baker Lake Climate
  • Монитор погоды в Baker Lake Climate
  • Климат города

АРХИВ ПОГОДЫ в Baker Lake Climate

Время (UTC), дата Ветер
(напр.,м/с)
 
Видим.   Явления Облачность Т
(С)
Тd
(С)
f
(%)
Тe
(С)
Тes
(С)
Комфортность P
(гПа)
Po
(гПа)
Тmin
(С)
Tmax
(С)
R
(мм)
R24
(мм)
S
(см)
00 10.08 С 7 н/о н/о +18.1 +9.9 59 +17 +17 1012.6 1006.2 +6.0 +19.8
03 10.08 н/о н/о +12.7 +8.2 74 1014.1 1007.7
06 10.08 н/о н/о +8.3 +5.7 84 1015.2 1008.8 +6.0 +19.8 1
09 10.08 С 6 н/о н/о +5.8 +3.8 87 +1 +1 1015.9 1009.5
12 10.08 С 6 н/о н/о +5.5 +3.7 88 +1 +1 1017.6 1011.2 +5.4 +19.8
15 10.08 С 5 н/о н/о +6.8 +4.3 84 +3 +3 1018.4 1011.9
18 10.08 С 3 н/о н/о +10.2 +3.9 65 +8 +8 1018.3 1011.8 +5.4 +10.9
21 10.08 С 3 н/о н/о +13.9 +3.6 50 +13 +13 1017.7 1011.3
00 11.08 СЗ 3 н/о н/о +15.8 +3.3 43 +16 +16 1017.6 1011.2 +5.4 +16.2
03 11.08 ЮВ 2 н/о н/о +11.9 +5.5 65 +11 +11 1017.5 1011.0
06 11.08 В 1 н/о н/о +10.0 +6.1 77 +10 +10 1017.3 1010.9 +5.4 +16.2 10
09 11.08 ЮВ 3 н/о н/о +9.7 +7.1 84 +8 +8 1017.4 1011.0
12 11.08 ЮВ 4 н/о н/о +10.4 +7.7 83 +8 +8 1016.7 1010.3 +8.5 +16.2
15 11.08 ЮВ 4 н/о н/о +12.7 +7.1 69 +11 +11 1015.8 1009.4
18 11.08 ЮВ 5 н/о н/о +17.4 +8.8 57 +17 +17 1015.0 1008.6 +8.5 +18.1
21 11.08 В 4 н/о н/о +20.9 +10.4 51 +23 +23 комфорт 1014.2 1007.8
00 12.08 В 5 н/о н/о +16.4 +9.9 65 +15 +15 1014.0 1007.6 +9.3 +21.3
03 12.08 В 5 н/о н/о +14.3 +9.8 74 +13 +13 1013.6 1007.2
06 12.08 В 5 н/о н/о +11.5 +8.6 82 +9 +9 1013.7 1007.3 +9.3 +21.3 22
09 12.08 В 5 н/о н/о +10.7 +8.7 87 +8 +8 1014.0 1007.6
12 12.08 В 3 н/о {осадки} н/о +10.9 +9.3 90 +9 +9 1014.7 1008.3 +10.1 +21.3 0.4
15 12.08 В 5 н/о н/о +12.1 +10.4 89 +10 +10 1014.6 1008.2 0.2
18 12.08 ЮВ 6 н/о {осадки} н/о +17.0 +12.6 75 +16 +16 1013.9 1007.5 +10.1 +17.3 0.6
21 12.08 ЮВ 7 н/о н/о +20.5 +12.6 60 +22 +22 комфорт 1013.6 1007.2
00 13.08 ЮВ 6 н/о н/о +19.0 +12.2 65 +20 +20 1012.5 1006.1 +10.1 +21.3
03 13.08 ЮВ 6 н/о н/о +16.6 +12.3 76 +16 +16 1012.6 1006.2
06 13.08 ЮВ 4 н/о н/о +14.0 +11.2 83 +12 +12 1013.2 1006.8 +10.1 +21.3 21
09 13.08 ЮВ 5 н/о н/о +12.3 +10.3 88 +10 +10 1013.2 1006.9
12 13.08 ЮВ 5 н/о н/о +11.6 +10.0 90 +9 +9 1013.3 1006.9 +11.2 +21.3
15 13.08 ЮВ 6 н/о н/о +13.6 +11.0 84 +11 +11 1012.1 1005.8
18 13.08 ЮВ 6 н/о н/о +17.3 +12.1 71 +17 +17 1011.3 1005.0 +11.2 +17.5
21 13.08 ЮВ 5 н/о н/о +21.0 +13.2 61 +24 +24 комфорт 1010.5 1004.2
00 14.08 Ю 4 н/о н/о +20.7 +13.7 64 +23 +23 комфорт 1009.4 1003.1 +11.2 +21.6
03 14.08 ЮВ 3 н/о н/о +18.8 +13.7 72 +20 +20 1009.0 1002.7
06 14.08 Ю 3 н/о н/о +17.1 +13.7 80 +17 +17 1008.8 1002.5 +11.2 +21.6 11
09 14.08 Ю 3 н/о н/о +15.4 +13.7 90 +15 +15 1008.3 1002.0
12 14.08 ЮВ 2 н/о н/о +13.8 +12.8 94 +13 +13 1008.0 1001.7 +13.8 +21.6
15 14.08 ЮВ 2 н/о н/о +15.9 +13.7 87 +16 +16 1007.5 1001.2
18 14.08 ЮВ 2 н/о н/о +20.7 +14.5 68 +24 +24 комфорт 1006.6 1000.3 +13.8 +21.1
21 14.08 ЮВ 2 н/о н/о +21.8 +14.4 63 +25 +25 комфорт 1006.0 999.7
00 15.08 З 4 н/о н/о +22.4 +13.7 58 +26 +26 жарко 1006.4 1000.1 +13.8 +23.7
03 15.08 СЗ 3 н/о н/о +16.7 +12.8 78 +17 +17 1006.7 1000.4
06 15.08 СЗ 5 н/о н/о +15.0 +12.2 83 +14 +14 1006.9 1000.6 +13.8 +23.7
09 15.08 н/о н/о +14.1 +12.1 88 1007.3 1001.0
12 15.08 н/о н/о +12.1 +10.8 92 1007.9 1001.6 +12.0 +23.7
15 15.08 С 5 н/о н/о +12.3 +10.9 91 +10 +10 1008.4 1002.1
18 15.08 С 6 н/о н/о +16.4 +12.6 78 +15 +15 1008.5 1002.2 +11.7 +16.4
06 16.08 В 4 н/о н/о +12.8 +11.6 92 +11 +11 1011.0 1004.8
09 16.08 В 4 н/о н/о +11.9 +11.0 94 +10 +10 1005.3
12 16.08 В 5 н/о н/о +11.4 +10.6 95 +9 +9 1005.7
18 16.08 В 6 н/о н/о +11.6 +8.7 82 +9 +9 1012.6 1006.2
21 16.08 В 6 н/о н/о +12.0 +8.7 80 +9 +9 1012.7 1006.3

 

Местоположение метеостанции Baker Lake Climate (Канада): широта 64.32 долгота -96.00 высота над уровнем моря 51 м.

В архиве по умолчанию представлена погода в Baker Lake Climate за последнюю неделю. Архивные данные за месяц целиком и за предыдущие месяцы, начиная с января 2011 года, Вы можете получить, выбрав интересующий диапазон дат из раскрывающегося списка и нажав кнопку "Ввод!".

Внимание! Время в таблицах - всемирное. Для получения местного времени необходимо прибавить поправку, которая в Baker Lake Climate равна -6 ч.

Смотрите также архив погоды в соседних городах и на ближайших метеорологических станциях:

Погода в Baker Lake Airport (Канада) (4 км)
Погода в Back River MAPS (Канада) (197 км)
Погода в Rankin Inlet (Канада) (255 км)
Погода в Dubawnt Lake (Канада) (305 км)
Погода в Robertson Lake (Канада) (316 км)
Погода в Wager Bay (Канада) (353 км)
Погода в Arviat Climate (Канада) (372 км)
Погода в Arviat (Канада) (372 км)
Погода в Arviat Airport (Канада) (372 км)
Погода в Hanbury River ARS (Канада) (454 км)

Пояснения к столбцам:

Ветер - указаны скорость ветра в м/с - средняя за 10 мин, порывы в срок и между сроками (в фигурных скобках) и направление, откуда дует ветер: С - северный, СВ - северо-восточный, В - восточный, ЮВ - юго-восточный, Ю - южный, ЮЗ - юго-западный, З - западный, СЗ - северо-западный.
Видимость - горизонтальная дальность видимости в метрах или километрах. При видимости от 1 до 10 км при отсутствии осадков обычно наблюдается дымка, при ухудшении видимости до 1 км и менее - туман. В сухую погоду видимость может ухудшаться дымом, пылью или мглою.
Явления - указаны атмосферные явления, наблюдавшиеся в срок или в последний час перед сроком; фигурными скобками обозначены явления, наблюдавшиеся между сроками (за 1-3 часа до срока); квадратными скобками обозначены град или гололедные отложения с указанием их диаметра в мм.
Облачность - указаны через наклонную черту общая и нижняя облачность в баллах и высота нижней границы облаков в метрах; квадратными скобками обозначены формы облаков: Ci - перистые, Cs - перисто-слоистые, Cc - перисто-кучевые, Ac - высококучевые, As - высокослоистые, Sc - слоисто-кучевые, Ns - слоисто-дождевые, Cu - кучевые, Cb - кучево-дождевые. Подробнее классификацию облаков см. в Атласе облаков (PDF).
T - Температура воздуха - температура, измеренная на высоте 2 м над землей.
Td - Температура точки росы - температура, при понижении до которой содержащийся в воздухе водяной пар достигнет насыщения.
f - Относительная влажность воздуха - влажноcть воздуха, измеренная на высоте 2 м над землей.
Te - Эффективная температура - температура, которую ощущает одетый по сезону человек в тени. Характеристика душности погоды. При расчете учитывается влияние влажности воздуха и скорости ветра на теплоощущения человека.
Tes - Эффективная температура на солнце - температура, которую ощущает человек, с поправкой на солнечный нагрев. Характеристика знойности погоды. Зависит от высоты солнца над горизонтом, облачности и скорости ветра. Ночью, в пасмурную погоду, а также при ветре 12 м/с и более поправка равна нулю.
P - Атмосферное давление - приведенное к уровню моря атмосферное давление.
Po - Атмосферное давление - измеренное на уровне метеостанции атмосферное давление.
Tmin - Минимальная температура - минимум температуры воздуха на высоте 2 м над землей.
Tmax - Максимальная температура - максимум температуры воздуха на высоте 2 м над землей.
R - Количество осадков - Количество выпавших осадков за период времени, мм. При наведении курсора мыши на число - период времени, за который выпало указанное количество осадков.
R24 - Количество осадков - Количество выпавших осадков за 24 часа, мм.
S - Снежный покров - Высота снежного покрова, см. При наведении курсора мыши на число - состояние снежного покрова и степень покрытия местности в баллах.